User: anonymous   Login
Location: Pilipovskiye Korichintsy
(49.1833°N, 27.4667°E)
Time: 08:25:17
(UTC+00:00)
Language:

Aureole 1 Rocket - Orbit

View from above orbital plane
View from above orbital plane
View from above satellite
View from above satellite

Ground track
Ground track

The orbit data is extracted from the following two-line orbital elements,

1  5730U 71119B   20272.46203871 +.00001744 +00000-0 +11312-3 0  9995
2  5730 073.8937 173.2731 0689660 178.5303 181.8104 14.04353135373915
Epoch (UTC): 28 September 2020 11:05:20
Eccentricity: 0.0689660
inclination: 73.8937°
perigee height: 378 km
apogee height: 1379 km
right ascension of ascending node: 173.2731°
argument of perigee: 178.5303°
revolutions per day: 14.04353135
mean anomaly at epoch: 181.8104°
orbit number at epoch: 37391

The dashed part of the orbit path shows where the satellite is in the earth's shadow,  

DLR